Date,TemperatureHighF,TemperatureAvgF,TemperatureLowF,DewpointHighF,DewpointAvgF,DewpointLowF,HumidityHigh,HumidityAvg,HumidityLow,PressureMaxIn,PressureMinIn,WindSpeedMaxMPH,WindSpeedAvgMPH,GustSpeedMaxMPH,PrecipitationSumIn
2013-3-1,57.6,53.6,50.7,-99.9,-99.9,-99.9,0,0,100,30.34,30.26,7,3,20,0.07
2013-3-2,56.4,49.1,36.2,-99.9,-99.9,-99.9,0,0,100,30.26,30.04,8,3,18,0.40
2013-3-3,52.3,40.5,34.3,-99.9,-99.9,-99.9,0,0,100,30.28,30.17,5,1,10,0.03
2013-3-4,55.2,41.7,29.6,-99.9,-99.9,-99.9,0,0,100,30.28,29.90,9,3,17,0.00
2013-3-5,50.6,43.9,39.5,-99.9,-99.9,-99.9,0,0,100,29.89,29.70,4,0,8,0.00
2013-3-6,43.5,41.0,38.5,-99.9,-99.9,-99.9,0,0,100,29.87,29.57,4,1,14,0.54
2013-3-7,54.4,44.1,37.8,-99.9,-99.9,-99.9,0,0,100,30.06,29.87,4,1,9,0.27
2013-3-8,55.5,41.8,33.7,-99.9,-99.9,-99.9,0,0,100,30.21,30.06,5,1,11,0.00
2013-3-9,56.6,42.3,31.4,-99.9,-99.9,-99.9,0,0,100,30.47,30.20,4,1,10,0.00
2013-3-10,46.3,41.7,36.2,-99.9,-99.9,-99.9,0,0,100,30.48,30.40,3,0,6,0.01
2013-3-11,52.3,45.5,40.7,-99.9,-99.9,-99.9,0,0,100,30.42,30.13,4,1,7,0.04
2013-3-12,54.7,52.1,47.4,-99.9,-99.9,-99.9,0,0,100,30.13,30.04,7,4,23,0.01
2013-3-13,52.1,51.0,50.0,-99.9,-99.9,-99.9,0,0,100,30.17,30.07,5,2,17,0.19
2013-3-14,53.4,49.7,47.4,-99.9,-99.9,-99.9,0,0,100,30.12,30.01,5,1,14,0.02
2013-3-15,60.4,52.3,47.7,-99.9,-99.9,-99.9,0,0,100,30.17,30.11,6,3,17,0.00
2013-3-16,49.8,46.1,40.1,-99.9,-99.9,-99.9,0,0,100,30.12,29.86,8,4,24,0.03
2013-3-17,49.7,42.2,38.6,-99.9,-99.9,-99.9,0,0,100,30.16,29.95,7,3,19,0.00
2013-3-18,55.1,43.7,38.2,-99.9,-99.9,-99.9,0,0,100,30.20,30.09,7,3,24,0.00
2013-3-19,57.3,42.8,34.9,-99.9,-99.9,-99.9,0,0,100,30.19,29.58,7,2,16,0.03
2013-3-20,51.0,46.2,38.9,-99.9,-99.9,-99.9,0,0,100,30.00,29.37,10,5,36,0.33
2013-3-21,50.1,40.0,35.5,-99.9,-99.9,-99.9,0,0,100,30.18,30.00,6,2,17,0.00
2013-3-22,50.8,39.0,32.8,-99.9,-99.9,-99.9,0,0,100,30.35,30.18,6,2,12,0.00
2013-3-23,53.4,40.1,32.0,-99.9,-99.9,-99.9,0,0,100,30.37,30.27,5,1,10,0.00
2013-3-24,57.4,42.1,30.5,-99.9,-99.9,-99.9,0,0,100,30.27,30.09,4,1,9,0.00
2013-3-25,65.0,49.7,34.7,-99.9,-99.9,-99.9,0,0,100,30.10,29.90,5,1,11,0.00
2013-3-26,61.9,51.3,44.4,-99.9,-99.9,-99.9,0,0,100,29.99,29.93,4,1,9,0.00
2013-3-27,57.0,49.7,44.7,-99.9,-99.9,-99.9,0,0,100,29.96,29.91,5,1,9,0.00
2013-3-28,64.2,51.4,43.2,-99.9,-99.9,-99.9,0,0,100,30.12,29.96,4,1,9,0.04
2013-3-29,66.7,53.1,43.7,-99.9,-99.9,-99.9,0,0,100,30.22,30.12,4,1,11,0.00
2013-3-30,72.1,54.4,40.7,-99.9,-99.9,-99.9,0,0,100,30.23,30.05,6,2,13,0.00
2013-3-31,72.1,56.5,43.3,-99.9,-99.9,-99.9,0,0,100,30.04,29.88,6,2,11,0.00